Location: Unspecified
(0.0000°N, 0.0000°E)
Time: 10:08:23
(UTC+00:00)

Courier 1B Rocket - Pass Details

Date: 29 May 2026
Orbit: 920 x 1201 km, 28.2° (Epoch: 9 June)

Event Time Altitude Azimuth Distance (km) Brightness Sun altitude
Rises 10:27:20 0° 295° (WNW) 3,541 7.8 59.1°
Reaches altitude 10° 10:29:55 10° 292° (WNW) 2,601 7.3 59.6°
Maximum altitude 10:36:06 68° 210° (SSW) 996 5.8 60.6°
Drops below altitude 10° 10:42:32 10° 128° (SE) 2,696 7.5 61.7°
Sets 10:45:16 0° 125° (SE) 3,681 8.0 62.1°
